Flag for Chad Weather past 2 weeks in Ndjamena, Chad

Now
81 °F

Thunderstorms. Passing clouds.


Feels Like: 84 °F
Forecast: 78 / 98 °F
Wind: 6 mph from North

Location: Ndjamena

Current Time: Aug 20, 2014 at 8:40:56 PM

Latest Report: Aug 20, 2014 at 8:00 PM


Visibility: N/A

Pressure: 29.86 "Hg

Humidity: 70%

Dew point: 70 °F

Location of NdjamenaLocation

Historic Weather in Ndjamena — Graph

°F

Ndjamena temperature yesterday

Maximum temperature yesterday: 90 °F (at 2:00 PM)
Minimum temperature yesterday: 75 °F (at 4:00 AM)
Average temperature yesterday: 81 °F

Past Weeks' High & Low Weather Summary

 TemperatureHumidityPressure
High93 °F (Aug 20, 2:00 PM)100% (Aug 6, 6:00 PM)29.98 "Hg (Aug 6, 6:00 PM)
Low68 °F (Aug 9, 5:00 AM)51% (Aug 20, 7:00 PM)29.77 "Hg (Aug 7, 5:00 PM)
Average79 °F82%29.87 "Hg
* Reported Aug 5 7:00 PM — Aug 20 7:00 PM, Ndjamena, Weather by CustomWeather, © 2014

Note: Actual official high and low records may vary slightly from our data, if they occured in-between our weather recording intervals... More about our weather records

Advertising

Ndjamena weather history for previous 24 hours

 ConditionsComfort  
Time TempWeatherWind HumidityBarometerVisibility
7:00 PM
Aug 20
82 °FThunderstorms. Passing clouds.7 mph51%29.83 "HgN/A
6:00 PM86 °FThunderstorms. Passing clouds.6 mph55%29.80 "HgN/A
5:00 PM91 °FScattered clouds.5 mph56%29.80 "HgN/A
4:00 PM91 °FScattered clouds.6 mph59%29.80 "HgN/A
3:00 PM93 °FScattered clouds.6 mph59%29.83 "HgN/A
2:00 PM93 °FScattered clouds.6 mph63%29.86 "HgN/A
1:00 PM91 °FScattered clouds.5 mph63%29.86 "HgN/A
12:00 PM90 °FScattered clouds.7 mph67%29.89 "HgN/A
11:00 AM88 °FPassing clouds.7 mph70%29.92 "HgN/A
10:00 AM86 °FPassing clouds.7 mph75%29.92 "HgN/A
9:00 AM82 °FSunny.6 mph84%29.92 "Hg10 mi
8:00 AM79 °FSunny.6 mph89%29.92 "Hg10 mi
7:00 AM77 °FSunny.6 mph89%29.89 "Hg10 mi
6:00 AM73 °FSunny.No wind89%29.89 "Hg10 mi
5:00 AM73 °FPassing clouds.2 mph94%29.89 "HgN/A
4:00 AM75 °FPassing clouds.No wind89%29.89 "HgN/A
3:00 AM75 °FPassing clouds.3 mph94%29.86 "HgN/A
2:00 AM75 °FThunderstorms. Passing clouds.2 mph78%29.89 "HgN/A
1:00 AM77 °FThunderstorms. Partly cloudy.1 mph79%29.92 "HgN/A
12:00 AM75 °FThunderstorms. Partly cloudy.12 mph78%29.92 "HgN/A
11:00 PM
Aug 19
75 °FThunderstorms. Partly cloudy.2 mph83%29.92 "HgN/A
10:00 PM75 °FThunderstorms. Partly cloudy.7 mph83%29.92 "HgN/A
9:00 PM77 °FThunderstorms. Partly cloudy.5 mph83%29.89 "HgN/A
8:00 PM79 °FThunderstorms. Partly cloudy.13 mph84%29.89 "HgN/A
Weather by CustomWeather, © 2014

See weather overviewHow to use our weather pages